Temp
59 59 59 59 59 59 59 59 59 59 59 59 59 57 56 55 56 55 57 63 57 52 55 60 60 56 58 59 54 55 54 54 51 47 47 48 45 49 48 50 46 43 38 37 40 33 32 54 51 44 49 51 54 51
58 59 59 59 59 59 59 59 59 59 59 58 58 58 58 57 56 54 52 63 64 53 55 59 61 61 58 58 53 57 56 57 57 52 52 49 45 46 47 42 49 40 49 43 43 42 52 54 50 52 54 53 50 51
58 58 58 58 58 58 59 59 59 58 58 57 57 57 57 56 56 55 51 55 57 52 52 54 55 61 61 60 60 51 58 62 60 57 56 52 47 51 43 46 49 49 52 44 46 51 51 55 55 55 53 52 54 53
57 58 58 58 58 58 58 58 59 58 58 58 57 57 57 55 55 53 51 53 52 54 47 53 61 56 62 60 60 60 58 62 60 58 54 48 44 54 48 49 47 49 50 49 48 52 51 53 55 55 54 54 53 53
57 57 57 57 57 57 57 58 58 58 58 58 57 57 57 55 54 51 50 52 53 52 45 51 56 58 59 59 59 60 58 57 56 52 51 46 52 50 49 46 44 52 50 45 44 54 52 50 55 57 52 51 51 50
56 56 56 57 57 57 57 57 57 57 57 57 57 56 56 55 54 49 45 52 53 58 48 42 51 54 56 58 58 57 57 56 56 54 52 51 51 48 38 39 55 57 58 58 52 55 52 54 56 56 52 52 52 51
56 56 56 56 56 56 56 56 56 57 57 56 56 55 55 54 51 47 45 47 51 58 49 42 42 51 55 56 54 53 54 54 53 52 49 51 49 47 40 37 54 57 58 57 56 53 49 51 49 54 54 54 54 54
55 55 56 56 56 56 56 56 56 56 56 56 55 55 54 53 51 47 51 50 51 52 52 39 42 44 52 49 47 53 51 52 50 50 47 47 46 45 34 46 53 56 57 55 54 52 51 53 53 52 53 52 50 49
55 55 55 56 56 56 56 56 56 56 56 55 54 53 50 47 44 47 52 51 50 49 40 38 35 37 50 50 49 49 51 43 47 44 47 46 42 35 45 49 53 53 52 52 53 52 51 50 49 50 50 49 47 48
54 54 55 55 55 55 56 56 55 55 55 53 51 44 39 44 51 49 44 41 41 46 47 42 48 38 48 46 43 43 44 41 36 43 44 37 41 50 53 54 54 53 54 53 48 46 48 48 48 48 48 49 49 49
54 54 54 54 54 55 55 55 55 54 52 47 41 38 45 51 45 42 34 36 38 38 46 46 49 41 49 44 41 46 39 40 35 40 38 38 39 47 50 51 53 54 54 53 52 52 51 51 49 49 49 50 49 49
54 54 54 54 54 54 54 54 54 50 48 45 45 47 44 40 35 33 33 37 39 38 47 47 47 48 46 51 43 39 39 37 33 43 35 34 45 46 47 50 51 52 53 52 54 52 52 53 52 50 49 49 48 48
54 54 54 54 54 54 54 54 53 52 50 46 41 35 34 33 30 30 30 33 38 46 48 46 42 44 43 47 43 39 34 34 42 34 34 40 44 47 47 49 49 51 51 51 51 51 51 50 51 50 48 48 48 47
53 53 53 53 53 53 53 53 52 50 44 36 32 30 31 30 33 38 41 45 49 48 47 49 42 44 43 40 40 33 37 37 30 30 35 43 45 47 47 49 49 48 49 48 49 49 49 48 48 49 48 47 46 44
53 53 52 52 53 53 53 52 51 47 39 33 33 30 32 41 46 48 54 54 51 51 50 45 42 42 36 33 37 34 29 28 33 34 41 46 48 48 47 49 48 48 48 47 48 47 48 48 47 46 47 46 45 45
52 52 50 52 52 52 52 51 48 45 39 34 34 34 42 41 44 49 52 48 52 51 51 46 40 36 35 36 31 31 31 31 37 43 47 49 48 48 48 50 50 50 49 48 47 47 47 47 46 45 46 45 44 43
51 48 52 52 52 51 51 47 38 33 33 32 33 40 43 47 47 47 50 48 54 50 40 40 32 35 37 32 32 37 35 42 47 47 50 49 48 49 51 51 51 50 49 47 46 46 46 46 45 44 41 42 42 42
48 51 52 52 51 49 42 39 35 33 31 33 35 41 44 48 50 49 49 50 50 49 45 41 40 34 32 31 33 40 43 45 49 49 50 50 51 51 52 50 50 50 48 46 46 45 44 42 41 38 40 40 40 40
50 51 51 51 48 38 33 32 34 31 34 37 41 46 45 45 48 50 47 50 46 47 43 39 35 36 39 43 43 46 46 46 45 45 48 51 51 50 50 50 49 48 46 45 44 42 41 41 40 39 39 40 35 38
52 51 51 50 49 36 32 32 36 34 33 38 43 42 43 43 45 46 46 43 43 42 37 33 39 44 45 46 49 49 48 49 47 44 44 47 50 50 49 49 48 47 46 44 43 45 41 39 41 41 39 39 37 36
50 49 49 46 36 36 34 32 33 35 36 37 41 40 38 42 41 42 40 43 39 37 38 45 44 43 47 48 51 51 49 49 45 45 44 43 49 49 48 48 47 46 43 40 38 39 43 38 39 40 40 39 38 39
46 46 38 40 33 32 33 35 36 38 36 37 38 39 36 35 36 38 41 37 38 45 45 45 43 44 45 47 48 50 50 49 48 48 48 48 45 45 46 46 43 39 39 39 41 39 39 40 40 39 38 37 40 38
44 41 34 33 32 32 32 38 33 35 32 33 37 34 32 35 39 43 36 40 44 47 46 46 46 47 48 50 50 50 50 48 46 46 47 46 45 47 46 43 44 41 38 39 42 41 38 41 41 38 37 38 37 37
41 35 32 32 32 30 32 31 33 34 34 33 32 32 34 35 37 35 35 39 43 45 44 45 46 45 47 49 48 48 48 49 47 47 46 45 43 42 44 44 43 43 42 42 41 39 38 38 40 38 37 37 36 36
31 30 32 29 32 30 30 30 32 32 31 32 31 30 32 35 32 32 34 38 40 41 43 43 44 45 45 46 47 47 49 49 46 42 44 46 45 43 41 40 40 41 43 40 37 37 37 38 38 38 37 36 35 35
28 30 31 30 31 31 32 29 31 33 33 32 32 34 34 32 29 30 34 39 41 42 41 41 42 42 43 45 45 44 46 49 47 43 45 46 45 41 38 37 35 36 41 41 40 38 37 38 37 37 36 36 38 35
26 27 32 37 37 34 32 37 40 36 32 30 31 30 31 29 31 36 39 44 43 45 45 45 47 46 44 44 45 48 49 49 46 46 47 46 45 45 43 39 36 39 42 42 41 40 38 37 36 36 35 35 35 34
32 32 29 32 35 37 33 33 34 34 33 35 34 29 31 34 34 35 36 40 44 46 45 46 47 48 47 47 47 46 45 46 46 44 43 42 42 44 44 44 44 44 43 42 40 39 38 37 36 36 35 34 33 34
31 35 35 29 33 35 35 34 35 37 39 37 34 33 32 31 32 32 33 35 44 45 43 43 43 47 46 45 44 42 43 42 39 35 34 32 34 35 41 41 42 42 42 41 44 41 40 38 37 36 36 34 34 34
32 38 33 31 30 30 32 33 34 36 37 37 35 33 31 31 32 34 35 37 42 43 44 43 43 43 40 39 37 38 42 44 45 42 37 36 37 40 40 41 41 40 40 39 38 39 43 39 40 35 34 32 31 31
36 35 31 30 28 32 33 36 37 37 36 35 36 33 30 30 32 34 34 35 37 41 41 40 40 41 40 39 38 38 37 40 42 44 44 42 41 41 41 42 41 41 39 38 37 36 36 33 32 31 31 30 31 31
35 32 30 27 28 33 36 34 34 33 33 33 32 32 32 33 29 31 32 34 37 38 41 42 39 39 41 43 43 42 42 40 42 43 41 42 42 42 42 42 42 41 39 37 36 36 35 32 31 30 30 30 30 30
32 33 33 32 30 30 33 33 31 29 29 30 30 31 32 32 29 30 33 33 33 39 40 42 43 43 43 43 42 42 42 40 42 44 44 44 44 42 41 40 40 39 37 35 34 34 32 32 31 31 30 30 30 29
MSLP
1012.20 1012.78 1013.23 1013.74 1014.01 1014.37 1014.71 1015.05 1015.06 1015.23 1015.58 1015.89 1016.13 1016.35 1016.63 1016.87 1016.91 1017.33 1016.45 1016.06 1016.00 1014.81 1014.20 1013.71 1013.29 1012.88 1012.04 1011.45 1011.24 1011.61 1012.00 1011.71 1011.77 1011.31 1010.63 1010.34 1010.37 1010.20 1010.16 1010.33 1010.90 1011.46 1012.07 1012.50 1012.67 1012.63 1012.26 1011.53 1012.03 1012.09 1011.67 1011.62 1011.99 1012.37
1011.21 1011.59 1012.16 1012.55 1013.01 1013.54 1014.01 1014.30 1014.41 1014.54 1014.96 1015.28 1015.61 1015.82 1016.07 1016.42 1016.47 1016.93 1016.54 1015.60 1015.37 1015.18 1014.15 1014.09 1013.63 1013.44 1013.49 1013.21 1012.78 1011.63 1011.19 1010.64 1010.49 1010.54 1010.06 1010.31 1010.51 1010.60 1010.47 1010.59 1010.88 1011.21 1011.17 1011.49 1011.67 1011.65 1011.37 1011.28 1011.39 1011.58 1011.72 1012.07 1012.56 1012.98
1010.21 1010.65 1011.19 1011.58 1012.03 1012.56 1013.13 1013.54 1013.81 1013.93 1014.27 1014.66 1015.02 1015.35 1015.69 1016.00 1016.16 1016.53 1016.55 1015.88 1015.39 1015.12 1014.76 1014.01 1012.59 1012.58 1013.13 1013.21 1013.10 1012.55 1011.08 1010.49 1010.11 1010.06 1009.84 1010.46 1010.60 1010.36 1010.69 1010.64 1010.50 1010.81 1010.91 1011.31 1011.35 1010.60 1010.87 1011.13 1011.32 1011.78 1012.21 1012.55 1012.89 1013.32
1009.28 1009.84 1010.31 1010.69 1011.17 1011.64 1012.14 1012.63 1013.09 1013.30 1013.69 1014.05 1014.42 1014.72 1015.16 1015.51 1015.87 1016.07 1016.41 1015.93 1015.81 1014.70 1013.67 1012.20 1011.88 1012.35 1012.52 1012.78 1012.71 1012.37 1012.00 1011.12 1010.58 1010.34 1010.37 1010.99 1011.21 1010.82 1010.93 1010.90 1010.69 1010.74 1010.76 1010.76 1010.67 1010.39 1010.61 1010.85 1011.00 1011.51 1012.26 1012.94 1013.40 1013.97
1008.22 1008.89 1009.51 1009.94 1010.44 1010.79 1011.18 1011.67 1012.27 1012.58 1013.05 1013.44 1013.83 1014.16 1014.54 1014.97 1015.51 1015.80 1016.21 1015.43 1015.32 1015.00 1013.30 1011.94 1011.83 1011.97 1012.26 1012.34 1012.18 1012.03 1011.86 1011.42 1010.93 1010.83 1010.80 1011.37 1011.31 1011.50 1011.65 1011.55 1010.54 1009.90 1009.61 1009.90 1010.10 1009.75 1009.94 1010.56 1010.81 1011.51 1012.39 1013.16 1013.86 1014.44
1007.20 1007.73 1008.51 1009.15 1009.57 1009.88 1010.37 1010.91 1011.44 1011.90 1012.40 1012.96 1013.28 1013.60 1013.94 1014.46 1015.14 1015.90 1015.23 1014.20 1014.12 1014.23 1014.04 1012.43 1012.27 1011.91 1012.00 1011.80 1011.81 1011.63 1011.39 1011.37 1010.94 1010.63 1010.82 1011.48 1011.84 1012.15 1012.24 1011.61 1009.15 1008.54 1008.66 1008.89 1009.62 1009.80 1010.41 1010.99 1011.30 1011.73 1012.57 1013.41 1014.09 1014.66
1006.24 1006.84 1007.60 1008.12 1008.77 1009.18 1009.61 1010.17 1010.74 1011.32 1011.92 1012.49 1012.79 1013.11 1013.32 1013.87 1014.52 1014.37 1014.47 1014.06 1013.84 1013.67 1013.43 1012.35 1012.07 1012.12 1011.86 1011.72 1011.85 1011.73 1011.76 1011.58 1011.45 1011.10 1011.52 1011.90 1012.44 1012.62 1012.43 1011.13 1008.98 1008.45 1008.43 1008.84 1009.56 1010.36 1011.21 1011.51 1011.96 1012.33 1012.94 1013.60 1014.21 1014.72
1005.14 1005.69 1006.60 1007.19 1007.95 1008.46 1008.97 1009.53 1010.21 1010.82 1011.47 1011.99 1012.34 1012.60 1012.84 1013.46 1014.01 1013.79 1013.24 1013.76 1013.59 1012.86 1012.39 1012.07 1011.94 1012.24 1012.19 1011.70 1011.76 1011.61 1011.70 1011.81 1011.84 1011.69 1012.26 1012.27 1012.77 1012.68 1011.82 1009.76 1008.97 1008.57 1008.55 1009.11 1009.95 1010.66 1011.19 1011.49 1012.20 1012.84 1013.35 1014.01 1014.69 1015.18
1004.01 1004.70 1005.49 1006.31 1007.05 1007.66 1008.27 1009.01 1009.70 1010.37 1011.00 1011.52 1011.95 1012.31 1012.94 1013.26 1013.03 1012.71 1012.94 1013.29 1013.42 1013.11 1012.02 1011.92 1011.39 1011.38 1011.58 1011.11 1011.49 1011.71 1011.53 1012.12 1012.51 1012.35 1012.37 1012.60 1012.30 1011.62 1009.59 1009.11 1008.69 1008.66 1008.98 1009.50 1010.23 1010.99 1011.55 1012.14 1012.74 1013.29 1013.84 1014.37 1014.85 1015.24
1003.00 1003.81 1004.52 1005.43 1006.13 1006.78 1007.56 1008.39 1009.21 1009.90 1010.59 1011.27 1011.97 1012.49 1012.61 1012.47 1012.49 1012.81 1013.68 1013.62 1013.72 1012.05 1011.14 1010.34 1009.94 1010.75 1010.85 1011.12 1011.25 1011.77 1011.91 1012.03 1012.77 1012.60 1012.80 1012.66 1011.05 1009.26 1008.56 1008.35 1008.36 1008.64 1009.10 1009.66 1010.56 1011.42 1011.85 1012.41 1012.99 1013.53 1013.96 1014.48 1014.96 1015.33
1002.03 1002.77 1003.61 1004.49 1005.21 1006.06 1006.89 1007.79 1008.62 1009.62 1010.41 1011.26 1011.76 1012.26 1012.50 1012.41 1012.46 1013.05 1012.98 1012.13 1011.88 1010.78 1009.17 1008.80 1008.91 1009.72 1010.27 1010.33 1010.78 1011.13 1011.79 1012.14 1012.51 1012.54 1012.71 1011.90 1010.15 1008.37 1008.05 1008.13 1008.42 1008.88 1009.45 1010.01 1010.65 1011.22 1011.75 1012.31 1012.91 1013.53 1014.14 1014.49 1014.98 1015.45
1000.82 1001.67 1002.59 1003.42 1004.22 1005.20 1006.21 1007.15 1008.10 1009.17 1009.64 1010.41 1011.21 1011.85 1012.81 1012.34 1012.19 1011.90 1011.19 1010.05 1009.04 1008.19 1006.91 1007.15 1008.04 1008.97 1009.87 1009.68 1010.44 1011.51 1011.59 1012.07 1012.25 1012.30 1012.45 1010.92 1008.68 1008.27 1008.36 1008.54 1008.90 1009.32 1009.86 1010.38 1010.75 1011.48 1011.94 1012.47 1013.01 1013.56 1014.18 1014.90 1015.39 1015.84
999.80 1000.65 1001.56 1002.47 1003.44 1004.43 1005.43 1006.47 1007.49 1008.50 1009.67 1010.76 1011.31 1011.88 1012.00 1011.30 1010.34 1009.42 1008.08 1006.95 1005.60 1004.84 1005.27 1005.96 1007.71 1008.89 1009.81 1009.77 1010.47 1011.09 1011.49 1011.93 1011.90 1012.09 1010.93 1008.88 1008.22 1008.40 1008.70 1008.98 1009.36 1009.81 1010.35 1010.94 1011.49 1011.98 1012.50 1012.99 1013.51 1014.14 1014.79 1015.30 1015.89 1016.33
998.63 999.52 1000.55 1001.55 1002.53 1003.65 1004.75 1005.94 1006.94 1008.28 1009.55 1010.49 1010.78 1010.65 1009.73 1008.49 1007.05 1005.62 1004.69 1003.84 1003.79 1004.54 1005.34 1005.67 1007.20 1008.18 1009.03 1009.68 1010.21 1011.00 1011.48 1011.56 1011.76 1011.10 1008.96 1007.30 1007.54 1008.22 1008.76 1009.25 1009.63 1010.23 1010.95 1011.60 1012.13 1012.57 1013.18 1013.69 1014.21 1014.72 1015.16 1015.67 1016.17 1016.56
997.46 998.35 999.51 1000.60 1001.73 1002.92 1004.19 1005.37 1006.64 1007.78 1009.10 1009.56 1009.34 1008.06 1007.15 1005.54 1004.42 1003.48 1002.62 1002.31 1002.74 1003.70 1004.67 1005.68 1006.98 1008.01 1009.13 1009.84 1009.97 1010.94 1011.52 1010.86 1009.80 1008.06 1006.59 1006.15 1006.96 1007.87 1008.58 1009.21 1009.80 1010.49 1011.25 1011.97 1012.49 1013.06 1013.50 1014.08 1014.67 1015.10 1015.53 1015.96 1016.33 1016.72
996.33 997.80 998.80 999.89 1001.04 1002.38 1003.70 1005.08 1006.53 1007.28 1008.12 1008.32 1007.62 1006.30 1004.88 1004.38 1003.09 1002.20 1001.51 1001.93 1002.28 1003.14 1004.25 1005.01 1006.39 1007.89 1008.39 1008.61 1009.10 1008.89 1008.99 1007.99 1006.39 1005.65 1005.38 1005.96 1006.91 1007.71 1008.45 1009.05 1009.77 1010.56 1011.31 1012.05 1012.76 1013.32 1013.89 1014.48 1015.02 1015.56 1015.88 1016.20 1016.67 1017.13
995.98 996.19 997.56 999.14 1000.63 1002.11 1003.31 1004.59 1005.99 1006.48 1007.17 1006.84 1005.71 1004.62 1003.67 1002.77 1001.81 1001.55 1001.00 1001.16 1002.06 1002.49 1003.19 1004.48 1005.73 1006.44 1007.00 1007.36 1007.32 1006.63 1005.69 1004.38 1004.08 1004.68 1005.12 1005.82 1006.68 1007.56 1008.33 1009.05 1009.78 1010.59 1011.50 1012.30 1013.05 1013.76 1014.42 1014.97 1015.47 1015.94 1016.37 1016.85 1017.11 1017.36
994.96 995.93 996.90 998.63 1000.40 1002.00 1003.50 1004.61 1005.17 1005.43 1005.35 1005.03 1004.28 1003.32 1002.94 1001.88 1001.12 1000.79 1000.77 1001.38 1001.67 1001.94 1002.30 1003.23 1004.18 1005.24 1005.28 1005.13 1004.37 1003.76 1003.65 1003.69 1004.00 1004.51 1005.12 1005.99 1006.92 1007.69 1008.38 1009.15 1009.99 1010.85 1011.73 1012.62 1013.42 1014.17 1014.86 1015.42 1015.85 1016.39 1016.82 1017.14 1017.38 1017.54
994.67 995.69 996.93 998.15 999.79 1001.92 1003.33 1004.40 1004.73 1003.94 1003.56 1003.31 1002.92 1002.28 1002.35 1001.78 1001.06 1000.56 1000.88 1001.37 1001.67 1001.68 1002.09 1002.77 1003.40 1003.32 1002.97 1002.33 1002.06 1002.47 1002.92 1003.30 1004.22 1005.09 1005.81 1006.45 1007.13 1007.93 1008.70 1009.62 1010.40 1011.21 1012.10 1012.95 1013.71 1014.46 1015.22 1015.66 1016.12 1016.62 1017.03 1017.21 1017.54 1017.75
994.63 995.62 996.78 998.34 999.64 1001.75 1002.97 1003.52 1003.78 1003.23 1002.59 1001.98 1001.63 1001.80 1001.69 1001.74 1001.63 1001.25 1001.61 1002.10 1002.17 1002.19 1002.47 1002.35 1001.95 1001.53 1001.24 1000.94 1000.76 1001.46 1002.39 1003.12 1003.90 1005.32 1006.55 1007.21 1007.74 1008.36 1009.24 1009.96 1010.67 1011.53 1012.42 1013.28 1014.09 1014.69 1015.52 1016.10 1016.45 1016.85 1017.04 1017.32 1017.66 1017.86
994.85 995.82 997.16 998.41 1000.53 1001.32 1001.97 1002.18 1002.09 1001.94 1002.42 1001.57 1001.29 1001.62 1001.76 1001.68 1001.63 1001.67 1002.05 1002.32 1002.48 1001.63 1001.41 1001.00 1001.13 1001.42 1001.19 1001.04 1000.84 1001.54 1002.57 1003.29 1003.89 1004.14 1005.19 1006.99 1007.99 1008.87 1009.66 1010.30 1011.03 1011.93 1012.82 1013.70 1014.49 1015.03 1015.53 1016.20 1016.71 1017.03 1017.25 1017.49 1017.73 1017.94
994.45 996.04 997.54 999.06 1000.31 1001.00 1001.05 1001.06 1001.00 1001.11 1001.64 1001.32 1001.54 1001.67 1001.57 1001.40 1001.53 1001.96 1002.15 1002.23 1001.39 1000.51 1000.54 1000.64 1001.13 1001.44 1001.66 1001.53 1001.79 1002.31 1003.01 1003.74 1004.48 1005.28 1006.48 1007.24 1008.08 1009.11 1009.87 1010.58 1011.37 1012.38 1013.07 1013.71 1014.44 1015.09 1015.70 1016.11 1016.70 1017.13 1017.43 1017.72 1017.85 1018.05
995.10 996.72 998.13 998.91 999.51 1000.13 1000.58 1000.56 1000.00 1000.03 1000.50 1000.92 1000.85 1001.08 1001.23 1001.02 1000.84 1001.43 1001.51 1000.79 1000.18 1000.02 1000.18 1000.69 1001.14 1001.53 1001.79 1001.90 1002.28 1002.84 1003.37 1004.07 1005.12 1006.06 1006.83 1007.73 1008.60 1009.31 1010.10 1010.95 1011.67 1012.36 1013.25 1013.95 1014.33 1015.10 1015.76 1016.40 1016.92 1017.30 1017.66 1017.76 1017.94 1018.19
995.77 996.38 997.28 997.96 998.38 999.08 999.31 999.16 999.49 999.31 999.66 1000.03 1000.17 1000.33 1000.37 1000.64 1001.03 1000.93 1000.25 999.87 999.84 1000.14 1000.33 1000.80 1001.23 1001.72 1002.24 1002.50 1002.51 1003.20 1003.85 1004.61 1005.54 1006.50 1007.31 1007.97 1008.90 1009.83 1010.59 1011.26 1011.85 1012.52 1013.13 1013.80 1014.58 1015.36 1015.94 1016.67 1017.04 1017.23 1017.67 1017.94 1018.17 1018.42
995.52 996.51 996.66 996.83 997.65 997.86 997.72 998.18 998.13 998.11 998.24 998.76 999.32 999.66 999.95 1000.19 1000.21 1000.01 999.50 999.36 999.66 1000.00 1000.23 1000.68 1001.17 1001.57 1001.74 1002.40 1002.93 1003.57 1004.02 1004.63 1005.47 1006.57 1007.59 1008.10 1008.98 1010.13 1011.07 1011.73 1012.18 1012.69 1013.20 1013.98 1014.87 1015.52 1016.04 1016.69 1016.84 1017.25 1017.76 1018.16 1018.56 1018.72
994.77 995.21 995.47 995.72 996.03 995.76 996.14 996.48 996.36 996.24 996.82 997.62 998.36 999.01 999.36 999.33 999.42 998.76 998.20 998.08 998.49 999.02 999.50 999.90 1000.41 1001.28 1001.95 1002.32 1002.31 1003.28 1004.15 1005.01 1005.77 1006.67 1007.69 1008.21 1008.81 1009.56 1010.76 1011.65 1012.55 1013.29 1013.35 1013.82 1014.45 1015.28 1015.97 1016.53 1016.75 1017.23 1017.96 1018.47 1018.65 1018.73
994.07 994.24 994.45 994.13 993.91 994.43 995.11 995.53 995.11 995.40 996.01 996.67 997.61 998.31 998.41 998.52 997.97 997.04 996.62 996.62 997.13 997.68 998.46 999.15 999.57 1000.19 1000.91 1002.37 1003.18 1003.66 1004.55 1005.32 1005.81 1006.57 1007.51 1008.39 1009.03 1009.62 1010.12 1010.95 1012.08 1012.64 1012.98 1013.64 1014.30 1014.97 1015.81 1016.29 1016.61 1017.23 1017.94 1018.39 1018.64 1018.80
993.18 993.41 993.13 993.50 993.12 992.92 994.25 994.80 994.83 994.73 995.09 995.56 996.48 997.19 997.13 997.03 997.35 997.30 996.96 996.60 996.40 997.10 998.15 999.08 999.62 1000.12 1000.93 1002.06 1003.00 1003.72 1004.93 1005.70 1006.52 1007.38 1008.29 1009.11 1009.53 1009.82 1010.13 1010.88 1011.63 1012.33 1012.92 1013.53 1014.21 1014.87 1015.73 1016.08 1016.54 1017.28 1017.96 1018.46 1018.76 1018.91
993.03 992.54 992.64 993.15 993.16 993.06 993.25 994.04 994.14 993.81 993.84 994.62 995.24 996.18 996.96 997.46 998.31 998.24 997.85 997.30 996.83 997.34 998.20 999.11 1000.03 1000.56 1001.77 1002.89 1003.61 1004.46 1005.00 1005.58 1006.43 1007.69 1008.66 1009.74 1010.32 1010.81 1010.92 1011.52 1012.10 1012.56 1013.18 1013.86 1014.53 1015.08 1015.62 1015.95 1016.61 1017.38 1018.10 1018.55 1018.80 1018.97
992.48 992.16 992.49 993.15 993.53 993.82 993.87 993.92 993.96 994.11 994.18 994.57 995.31 996.46 997.46 998.48 998.94 998.68 998.32 997.85 997.55 997.66 998.17 998.67 999.19 1000.19 1001.53 1002.53 1003.96 1005.10 1005.49 1005.77 1005.90 1006.50 1007.80 1008.85 1009.64 1010.38 1011.13 1011.67 1012.14 1012.79 1013.50 1014.24 1014.88 1015.52 1015.92 1016.36 1017.05 1017.81 1018.47 1018.81 1019.05 1019.22
992.35 992.43 993.06 993.81 994.34 994.40 994.25 994.33 994.28 994.39 994.62 995.23 995.54 996.18 997.48 998.56 999.15 999.17 998.93 998.56 998.23 998.40 998.83 999.38 999.98 1000.66 1001.32 1002.33 1003.03 1004.26 1005.45 1005.73 1005.93 1006.49 1007.08 1008.20 1009.17 1010.08 1010.82 1011.44 1012.09 1012.86 1013.69 1014.41 1015.10 1015.74 1016.14 1016.82 1017.48 1018.11 1018.65 1018.99 1019.13 1019.30
991.93 992.37 992.86 993.75 994.61 994.74 994.44 994.67 995.07 995.53 995.92 995.99 996.55 996.89 997.63 998.12 999.29 999.88 999.91 999.47 999.10 999.16 999.35 999.51 999.97 1000.76 1001.38 1002.03 1002.83 1003.82 1004.63 1005.11 1005.83 1006.52 1007.20 1008.11 1009.06 1009.94 1010.69 1011.40 1012.14 1012.92 1013.74 1014.46 1015.13 1015.70 1016.32 1016.97 1017.63 1018.23 1018.70 1018.97 1019.22 1019.37
992.33 992.69 992.91 993.54 994.38 994.72 995.05 995.10 995.61 996.32 996.58 996.82 997.25 997.39 997.71 998.28 999.46 1000.18 1000.14 1000.04 999.93 999.36 999.49 999.79 1000.23 1000.86 1001.48 1001.98 1002.86 1003.94 1004.75 1005.51 1006.05 1006.66 1007.28 1008.02 1008.83 1009.78 1010.70 1011.48 1012.20 1013.02 1013.77 1014.52 1015.18 1015.80 1016.46 1017.10 1017.75 1018.32 1018.76 1019.12 1019.39 1019.56
Wind_Speed
21 20 20 20 18 17 17 17 16 14 12 9 9 7 3 3 4 7 5 8 8 5 14 11 6 5 8 4 2 5 4 4 3 3 2 3 2 1 1 3 4 5 5 3 2 2 7 8 4 4 4 3 5 2
22 21 21 18 18 18 18 18 16 15 13 11 10 9 11 9 3 3 4 6 7 4 4 1 6 6 5 4 4 4 4 3 4 3 1 3 1 1 1 2 3 2 2 2 7 5 4 8 2 3 3 4 3 5
23 21 21 19 19 19 18 18 17 16 14 11 10 11 12 10 7 2 4 5 2 3 8 13 13 9 6 7 2 2 3 5 3 3 1 0 2 3 3 5 5 3 4 1 4 3 7 7 5 7 3 3 6 7
24 23 22 20 19 19 18 19 19 17 14 13 12 13 13 12 10 2 5 3 2 4 5 6 5 4 3 5 8 6 4 5 3 2 1 2 2 2 1 1 1 2 6 6 5 6 4 5 7 9 8 5 7 7
23 23 21 21 21 19 19 19 19 17 15 13 12 13 13 13 11 3 7 4 5 8 4 0 1 6 4 7 8 7 6 6 2 2 1 3 2 1 1 2 4 6 7 5 5 1 5 3 7 7 9 7 7 6
23 22 23 22 20 19 19 18 17 16 14 12 11 12 13 11 11 3 5 8 10 8 4 3 1 4 4 6 7 7 4 3 3 2 1 3 2 0 3 4 5 8 7 3 1 6 9 6 6 6 8 8 7 7
23 23 23 21 20 19 18 18 17 16 14 13 11 12 11 13 6 4 3 2 8 7 4 3 2 2 2 3 1 2 2 2 3 2 1 3 2 0 2 5 5 8 6 8 9 8 6 5 4 6 8 8 8 6
25 24 23 21 20 19 18 17 17 15 14 13 12 10 9 11 4 5 4 6 8 4 3 3 2 3 6 5 3 1 3 3 1 1 1 2 2 1 6 7 7 5 7 8 8 3 4 8 8 7 7 8 6 5
24 24 24 23 22 20 19 18 16 15 14 12 10 7 3 3 4 2 8 9 5 3 3 3 6 4 5 1 3 2 2 2 1 2 2 1 3 7 8 7 6 8 6 7 8 7 5 8 8 8 7 8 6 6
23 23 24 24 23 22 20 19 17 14 13 11 5 3 3 3 16 11 3 3 2 5 5 4 4 3 3 3 2 4 1 3 3 2 4 2 6 8 8 6 4 7 7 8 9 8 8 8 8 7 6 7 5 3
24 24 25 25 24 23 21 20 17 15 12 4 3 3 1 9 2 3 4 5 6 4 5 5 4 6 2 4 4 2 4 4 3 3 5 4 5 5 6 2 7 7 7 8 7 7 7 9 8 7 6 6 7 5
25 24 26 26 25 24 22 20 18 12 5 8 6 4 2 2 3 5 5 5 8 7 8 10 5 5 3 3 4 2 4 2 3 6 2 5 4 6 6 7 7 8 8 8 7 8 7 8 7 7 7 7 6 6
25 25 25 27 27 25 23 21 22 15 16 3 3 3 4 4 7 7 9 6 5 3 8 8 6 4 3 3 4 3 4 4 5 3 6 7 5 6 6 7 7 8 10 8 8 8 9 8 9 8 7 6 7 5
26 26 26 28 27 26 24 22 22 21 6 4 6 8 7 6 8 7 8 7 5 8 10 11 5 4 3 4 4 6 2 4 3 4 8 4 9 10 7 8 8 10 10 9 9 8 9 8 7 7 7 6 5 5
26 27 28 28 28 26 24 23 29 6 4 5 5 7 10 7 7 10 8 10 6 11 12 6 5 4 2 3 2 6 2 5 7 7 5 7 13 12 11 11 11 10 8 8 8 7 8 8 7 6 7 6 6 4
26 23 18 28 27 26 25 23 16 4 4 3 6 5 6 8 8 8 9 7 7 12 7 3 6 5 4 5 5 8 9 9 6 5 6 11 13 12 12 12 11 10 9 9 7 7 7 7 7 6 6 5 6 4
31 7 23 28 27 26 28 11 3 5 6 6 5 7 6 8 8 7 4 8 10 12 7 5 7 9 4 4 5 7 8 5 7 7 7 12 13 13 12 13 12 12 11 9 8 7 7 7 6 5 6 5 5 5
6 12 29 30 23 17 5 3 4 6 8 5 4 6 8 5 7 6 3 7 8 9 6 5 6 5 7 8 5 5 3 4 6 7 9 11 12 11 11 13 12 11 11 8 8 7 7 7 6 4 5 4 4 3
13 15 31 34 17 7 5 3 4 6 4 4 6 6 5 3 4 3 4 10 2 1 6 2 4 5 5 5 4 8 9 6 9 8 9 11 12 12 13 12 11 10 9 8 8 5 5 6 5 4 4 3 3 2
21 28 32 31 19 5 4 3 3 3 4 5 4 6 5 3 1 3 5 3 2 3 3 4 5 3 3 3 2 8 7 11 13 12 9 8 9 12 12 10 8 9 7 8 8 8 5 5 4 4 4 3 3 3
18 17 30 16 4 3 3 4 3 4 3 4 6 5 3 3 4 5 4 3 2 3 3 4 4 2 3 2 5 9 11 11 10 9 15 13 10 10 9 8 8 7 7 6 5 5 6 5 4 4 3 4 4 4
10 19 5 5 4 3 1 3 2 6 5 4 7 3 3 4 4 5 4 3 4 4 2 3 4 4 4 6 8 10 11 11 10 12 12 13 11 10 8 8 6 5 5 5 6 5 5 5 5 4 4 4 3 5
15 6 4 3 4 4 4 4 5 6 6 8 6 6 3 3 4 7 5 5 3 2 3 5 7 5 7 9 11 12 11 14 11 11 11 8 8 8 7 7 7 8 6 4 5 6 6 8 6 5 4 3 3 3
3 5 6 6 5 5 4 4 3 4 5 6 5 5 6 4 4 3 5 3 4 5 6 10 8 9 7 10 10 10 10 10 11 10 8 10 9 7 7 7 6 6 6 6 7 7 6 5 7 5 5 4 5 3
5 5 5 5 5 8 5 6 5 4 5 5 5 3 4 4 4 4 4 5 7 7 9 9 8 7 10 8 8 8 8 11 11 12 7 9 10 9 6 5 5 6 7 8 6 7 6 5 4 6 5 5 5 3
5 6 7 7 6 5 6 7 7 6 5 4 3 5 4 3 4 6 6 9 8 10 11 12 11 9 7 7 12 10 10 9 10 10 8 9 10 11 11 10 8 3 4 6 9 8 7 5 6 8 7 7 5 3
5 5 5 3 4 6 5 3 6 5 5 6 6 6 5 6 7 5 2 9 8 9 11 10 11 11 13 10 7 9 9 9 8 9 8 7 6 7 10 11 10 7 6 8 8 8 8 7 7 7 6 5 5 3
1 5 8 7 3 3 7 4 4 5 5 6 8 7 12 8 5 1 1 2 4 11 10 7 6 9 12 12 11 10 10 11 13 12 10 8 5 4 6 6 8 16 8 7 7 7 6 7 7 7 6 6 4 3
4 4 6 2 2 2 4 5 5 2 4 6 4 4 3 3 3 3 3 3 6 11 12 11 9 10 11 10 9 9 11 12 17 18 15 8 5 2 6 8 9 8 8 8 12 9 9 7 8 7 6 5 4 5
2 1 4 4 3 1 2 2 2 2 3 3 4 4 3 3 3 3 3 2 7 10 11 11 13 15 15 14 12 9 6 7 10 13 13 11 9 9 9 9 9 9 8 8 8 9 14 10 12 6 5 4 3 4
5 3 5 4 3 2 2 2 3 3 4 4 4 4 4 4 1 4 5 5 3 8 11 11 10 11 13 14 14 14 9 4 8 10 10 10 12 11 10 10 10 9 9 10 10 9 9 7 6 7 7 6 6 6
3 3 5 5 3 2 2 4 3 4 3 3 3 3 3 3 3 2 4 4 4 7 10 10 11 10 9 9 8 6 12 8 9 12 17 12 11 12 11 10 10 10 10 10 9 8 10 8 7 7 7 8 7 7
4 7 7 5 3 3 1 3 3 3 3 3 3 3 3 3 4 2 0 2 2 4 7 7 8 10 12 12 12 12 13 8 13 17 21 21 21 17 11 9 10 11 11 9 8 8 9 11 8 9 8 8 7 7
Wind_Direction
221 221 226 231 235 240 239 240 243 251 254 252 238 216 217 79 223 202 255 234 223 228 266 301 311 311 317 292 215 109 136 223 171 254 217 206 239 135 327 73 166 165 149 201 226 149 268 127 99 198 178 53 107 55
220 220 224 226 232 237 239 237 236 242 250 249 239 226 237 237 154 212 249 237 231 225 299 256 275 259 235 304 311 181 323 150 201 211 205 53 133 102 245 200 13 234 198 186 157 216 147 181 86 65 63 133 119 121
221 218 222 224 229 233 237 237 235 237 242 241 228 228 228 237 260 198 269 294 218 246 273 257 245 199 204 227 301 262 210 347 343 111 352 129 241 138 180 231 149 242 116 194 48 201 177 192 203 140 138 73 108 117
222 223 222 221 227 230 232 233 233 236 235 237 231 233 219 204 225 254 252 236 266 287 226 233 95 165 141 227 231 235 296 283 317 302 148 134 204 46 311 18 345 104 124 199 242 244 145 229 205 168 144 115 113 112
221 221 223 224 226 227 227 227 229 234 234 234 235 233 227 192 206 203 269 248 241 264 317 129 160 146 204 224 226 215 240 250 225 213 179 212 99 117 61 4 249 175 191 170 219 211 163 69 163 135 127 144 140 134
217 219 220 224 225 227 225 221 222 227 231 234 230 235 226 203 183 147 239 202 212 232 266 261 98 181 210 216 210 207 214 256 266 247 97 71 39 313 140 246 257 204 196 210 309 86 90 86 95 111 128 145 148 146
216 216 218 221 222 221 223 220 217 220 224 228 230 240 224 197 174 208 227 260 322 180 244 264 226 181 252 166 151 127 219 230 284 112 260 163 166 161 192 232 220 222 212 129 112 105 105 160 152 133 129 135 140 133
213 211 213 214 217 219 217 212 211 215 219 222 228 234 224 162 205 269 223 270 279 218 213 236 147 163 193 195 154 41 164 202 340 82 40 241 106 189 250 251 277 326 139 123 134 146 56 115 120 123 123 117 135 131
211 210 210 209 210 210 210 210 209 212 210 213 221 179 120 194 196 188 177 186 292 281 189 198 166 185 156 166 106 174 264 154 70 216 167 118 195 224 222 226 236 163 160 155 135 125 147 129 137 135 137 143 162 177
210 212 210 209 207 205 209 208 207 207 200 201 150 182 200 217 120 111 42 143 195 237 215 223 138 149 178 164 162 114 269 155 157 196 109 196 255 239 225 221 103 136 144 138 135 160 156 148 144 147 161 160 175 115
209 210 208 208 204 206 206 203 198 194 181 166 144 174 88 137 82 123 224 185 176 232 199 195 154 139 246 175 139 181 181 155 182 151 169 225 254 220 104 55 134 133 139 141 151 146 162 138 144 151 158 123 99 99
206 209 209 206 202 201 201 197 191 179 166 155 128 104 113 205 150 181 203 213 187 219 184 161 140 116 173 226 111 238 139 60 192 141 159 249 237 120 124 128 128 127 136 122 121 133 114 129 135 127 125 115 111 90
212 211 211 205 200 196 196 192 187 144 114 82 98 128 190 193 196 201 192 203 191 124 161 140 124 130 141 245 100 122 134 174 110 172 225 228 142 135 147 127 137 127 114 115 104 103 101 88 88 99 99 101 101 101
217 211 206 200 194 191 190 187 172 146 107 163 166 199 221 178 223 194 221 175 125 136 154 149 120 138 133 141 148 124 92 120 158 228 232 199 165 145 146 143 140 139 129 127 125 119 119 123 112 98 108 103 99 86
216 203 195 191 187 184 185 178 164 135 126 188 182 215 208 226 220 216 231 167 149 155 161 125 82 104 117 109 161 101 100 202 211 221 220 137 143 145 151 151 146 141 137 136 129 129 130 118 130 123 103 101 106 105
193 183 189 180 180 179 177 171 168 152 143 208 221 221 235 200 239 236 219 139 152 155 145 103 131 132 184 146 143 203 155 212 216 207 138 134 141 146 152 152 142 141 136 126 121 118 111 113 110 103 109 111 100 94
172 186 162 173 172 172 167 151 105 133 182 208 219 235 267 207 206 219 164 152 163 160 169 136 137 189 106 156 206 184 206 202 144 126 136 141 147 150 144 138 133 128 126 121 116 119 106 102 106 110 98 99 99 112
162 162 157 161 158 158 144 126 171 174 193 198 201 199 223 240 232 191 172 166 162 190 153 174 124 163 179 179 227 195 132 97 109 128 133 138 140 141 137 132 127 129 124 122 121 111 118 119 122 110 113 118 128 130
159 156 158 157 142 108 133 158 163 203 173 171 222 193 203 290 293 137 117 170 35 99 109 87 135 184 199 210 166 161 155 145 139 124 130 133 135 131 129 127 128 122 120 120 120 121 115 111 120 122 126 122 131 106
155 156 159 150 141 120 144 161 185 151 192 192 172 161 159 196 252 147 149 99 119 135 144 167 206 204 179 173 150 144 138 136 133 130 132 133 134 134 135 137 132 125 115 101 99 117 116 109 105 100 94 102 86 68
142 163 147 135 73 82 158 161 152 154 189 189 144 140 176 163 172 163 149 138 202 210 204 204 117 104 25 47 105 131 139 146 151 149 145 143 144 135 136 129 120 119 121 124 131 125 136 125 134 142 140 84 58 64
109 114 82 84 113 144 143 187 164 153 157 175 151 156 169 165 151 177 127 195 238 197 138 130 133 139 153 126 122 131 132 121 118 117 119 134 138 144 139 134 126 121 126 133 133 136 119 122 112 105 89 108 100 91
105 96 88 123 123 155 180 199 168 168 143 169 151 148 177 200 148 141 193 205 189 115 125 126 133 139 132 127 123 128 128 128 129 134 135 126 127 126 122 119 129 129 126 126 116 120 109 107 112 118 135 109 82 72
69 114 148 150 141 162 166 151 177 160 129 165 170 170 149 138 148 206 199 192 142 134 137 142 140 130 130 142 137 135 136 134 129 128 127 130 127 119 124 130 128 126 128 119 118 119 125 120 138 122 105 100 90 72
122 152 141 133 161 175 141 154 180 171 157 141 145 152 160 161 170 179 198 171 160 166 156 149 150 152 147 138 128 135 138 141 141 131 138 130 123 116 109 97 94 112 131 127 130 129 126 154 135 116 114 95 87 88
175 174 162 154 174 148 155 158 199 159 131 129 133 124 172 150 166 211 195 168 172 171 166 164 156 149 143 157 144 143 142 142 134 126 135 143 143 142 143 139 132 140 144 138 137 140 142 149 130 129 120 128 127 90
164 174 193 250 149 132 103 233 167 149 148 151 157 164 162 189 211 216 137 165 167 168 166 165 163 158 144 139 127 128 132 136 130 125 121 126 132 145 150 150 160 164 139 140 141 145 147 143 130 125 120 123 124 114
125 172 166 182 182 135 128 133 190 173 160 152 147 181 178 189 189 123 75 11 137 140 140 139 137 141 142 142 139 124 114 115 108 98 82 56 55 106 116 117 127 138 128 130 126 124 135 132 126 127 132 130 129 106
209 196 123 126 189 147 125 155 199 177 128 163 151 134 137 56 20 347 315 321 137 140 140 134 127 124 119 126 117 123 131 134 135 134 131 134 130 103 102 121 134 128 121 118 119 123 131 120 118 121 123 124 125 113
162 75 95 85 72 80 82 356 92 83 38 80 110 112 91 70 349 288 291 334 155 154 153 142 139 139 143 141 138 141 152 159 156 149 152 163 160 141 139 143 134 130 126 125 124 125 122 109 116 107 115 122 119 114
147 141 87 73 94 20 85 97 90 67 59 52 24 72 104 129 61 5 3 341 93 125 131 140 139 145 144 148 150 146 158 176 150 135 120 127 137 141 147 142 138 134 135 137 136 139 136 126 130 130 132 128 122 110
120 134 135 115 113 310 27 41 55 52 31 52 81 100 131 97 86 49 341 336 106 133 156 149 146 155 149 140 129 104 114 120 125 130 130 136 140 143 139 138 136 138 138 138 143 140 137 134 133 138 141 138 124 114
82 84 99 105 114 123 172 121 81 98 36 61 56 23 31 75 114 119 248 1 291 170 156 146 135 132 135 129 128 128 127 122 132 135 137 140 141 139 135 136 135 135 132 129 128 135 138 137 134 141 140 135 132 115